Content
SEND FEEDBACK

Daily
Averages
Monthly
Summary
United Kingdom

INGOLDMELLS, ENGLAND


Home > Europe > United Kingdom > England
Elevation: 47 feet     Latitude: 53 18N     Longitude: 000 10E

WEATHER
 
SELECT A DAY
Number of Records: 28,340;   Date Range: 6/2/04 - 11/26/14
 
SHARE

PRINT THIS DATA

[ ← Previous Day ]
WEATHER ALMANAC - DECEMBER 17, 2013
[ Next Day → ]
[ °C ]   °F
Weather ElementAverageHighLow
Temperature41.3 °F46 °F (1:00 am)36 °F (9:00 am)
Dewpoint38.2 °F41 °F (10:00 pm)35 °F (9:00 am)
Humidity85 %95 % (11:00 pm)67 % (1:00 am)
Barometer30.17 in30.26 in (10:00 am)30.03 in (11:00 pm)
Wind Speed8.1 mph12.7 mph (1:00 am)
Weather ElementAverage
Visibility17.4 mi
Wind DirectionSSW (208.3 °)

Weather ElementTotal
Precipitation---
Heating Degree Days24 (Base 65)
Averaged from 23 records on December 17, 2013
WEATHER CONDITIONS BREAKOUT
WIND DIRECTION BREAKOUT
WEATHER BY HOUR - DECEMBER 17, 2013
[ °C ]   °F
Local TimeTemperatureDewpointHumidityBarometerVisibilityWind DirectionWind SpeedGust SpeedPrecipitationEventsConditions
1:00 AM46.0 °F39.0 °F67 %30.12 in19.0 miWest (270°)12.7 mphMostly Cloudy
2:00 AM44.0 °F37.0 °F67 %30.13 in25.0 miSW (230°)6.9 mphScattered Clouds
3:00 AM43.0 °F38.0 °F76 %30.14 in28.0 miSSW (200°)10.4 mphOvercast
4:00 AM42.0 °F38.0 °F83 %30.16 in22.0 miSW (220°)10.4 mphScattered Clouds
5:00 AM42.0 °F38.0 °F82 %30.16 in25.0 miSW (230°)10.4 mphOvercast
6:00 AM41.0 °F38.0 °F83 %30.17 in22.0 miWest (260°)6.9 mphOvercast
7:00 AM40.0 °F37.0 °F87 %30.19 in18.0 miSouth (190°)5.8 mphOvercast
8:00 AM38.0 °F37.0 °F94 %30.22 in17.0 miWest (280°)5.8 mphScattered Clouds
9:00 AM36.0 °F35.0 °F94 %30.24 in17.0 miWNW (290°)6.9 mph
10:00 AM39.0 °F37.0 °F88 %30.26 in22.0 miWNW (290°)4.6 mph
11:00 AM41.0 °F37.0 °F81 %30.25 in17.0 miSW (220°)5.8 mph
12:00 PM43.0 °F38.0 °F77 %30.23 in19.0 miWSW (250°)8.1 mph
1:00 PM43.0 °F39.0 °F81 %30.21 in22.0 miWest (280°)9.2 mph
2:00 PM43.0 °F40.0 °F83 %30.20 in17.0 miWNW (300°)10.4 mph
3:00 PM43.0 °F39.0 °F82 %30.19 in18.0 miSouth (170°)8.1 mph
4:00 PM41.0 °F38.0 °F86 %30.17 in19.0 miSouth (170°)9.2 mph
5:00 PM40.0 °F38.0 °F89 %30.17 in17.0 miSSE (160°)8.1 mph
6:00 PM40.0 °F38.0 °F90 %30.16 in13.0 miSSE (160°)9.2 mphScattered Clouds
7:00 PM40.0 °F38.0 °F90 %30.14 in16.0 miSSE (150°)8.1 mph
8:00 PM39.0 °F38.0 °F94 %30.12 in9.0 miESE (120°)5.8 mphMostly Cloudy
9:00 PM41.0 °F40.0 °F92 %30.10 in12.0 miESE (120°)4.6 mphMostly Cloudy
10:00 PM42.0 °F41.0 °F93 %30.06 in2.0 miESE (120°)11.5 mphPartly Cloudy
11:00 PM42.0 °F41.0 °F95 %30.03 in4.0 miESE (110°)8.1 mphMostly Cloudy
Hourly data recorded from EGYW, located miles away from Ingoldmells, England







STORIES FROM OUR PARTNERS